Weather in Mukhorshibr

Russia / Republic of Buryatia     51°02′50″N   107°49′25″E
temp.,
°C
wind,
m/s
gust,
m/s
humid.,
%
clouds,
%
prec.,
mm/h
press.,
hPa
HPBL,
m
20 june, sun
sun2023:00+14s11510 0.0 100411
02:00+12e11525 0.0 100510
05:00+11ese21595 0.0 100614
08:00+18e12445 0.0 1006409
11:00+24ene12305 0.0 10041809
14:00+25ne323045 0.0 10032504
17:00+25e323220 0.0 10022330
20:00+21e25491 0.0 1003114
21 june, mon
mon2123:00+16se39541 0.0 1005185
02:00+13ese22631 0.0 100531
05:00+13ese226510 0.0 100620
08:00+20ese24445 0.0 1005448
11:00+25ese22325 0.0 10041420
14:00+30s132510 0.0 10022769
17:00+28nne332812 0.0 10012000
20:00+23e22470 0.0 100116
22 june, tue
tue2223:00+18sse22596 0.4 100324
02:00+15sse2276100 0.7 100525
05:00+14sse1191100 2.1 100616
08:00+17n118564 4.4 1007271
11:00+22n325832 0.0 1007924
14:00+26nnw344462 0.0 10051616
17:00+27nnw443999 0.0 10031696
20:00+18sw118287 1.0 100521
23 june, wed
wed2323:00+16wnw119294 1.1 100819
02:00+13sw119499 1.1 100810
05:00+13sw0095100 0.0 100810
08:00+16nnw118496 0.0 1009283
11:00+24nw135177 0.0 10071297
14:00+27nne133973 0.0 10052242
17:00+25n114986 0.0 1005944
20:00+22nne116211 0.0 100512
24 june, thu
thu2423:00+19e217276 0.4 100618
02:00+17sse2181100 0.4 100511
05:00+15ese1186100 0.0 100412
08:00+19nnw007497 0.2 1004226
11:00+26n114840 0.1 1003996
14:00+30nw24320 0.1 10012413
17:00+29nnw44321 0.0 10002055
20:00+24wnw11513 0.0 100212